Regional Weather Roundup
Issued by NWS

Home | Current Version | Previous Version | Text Only | Print | Product List | Glossary On
Versions: 1 2 3 4 5 6 7 8 9 10 11 12 13 14 15 16 17 18 19 20 21 22 23 24 25 26 27 28 29 30 31 32 33 34 35 36 37 38 39 40 41 42 43 44 45 46 47 48 49 50
524
ASUS44 KFWD 271401
RWRTX
NORTH TEXAS HOURLY WEATHER ROUNDUP
NATIONAL WEATHER SERVICE FORT WORTH TX
900 AM CDT TUE JUN 27 2017

NOTE: "FAIR" INDICATES FEW OR NO CLOUDS BELOW 12,000 FEET WITH NO
SIGNIFICANT WEATHER AND/OR OBSTRUCTIONS TO VISIBILITY.

TXZ118-119-271500-
DALLAS/FORT WORTH METROPLEX

CITY           SKY/WX    TMP DP  RH WIND       PRES   REMARKS
DFW AIRPORT    MOSUNNY   81  73  76 CALM      30.02S
DALLAS LOVE    MOSUNNY   81  72  74 S5        30.03R
FTW MEACHAM    SUNNY     81  73  76 S3        30.03S
DAL-EXECUTIVE  SUNNY     80  73  79 CALM      30.03S
FTW-ALLIANCE   MOSUNNY   80  74  81 SE3       30.03S
FTW-NAS-JRB    MOSUNNY   81  73  76 SE7       30.04R
FTW-SPINKS     SUNNY     79  72  78 CALM      30.05S
ARLINGTON      SUNNY     80  74  81 CALM      30.04R
GRAND PRAIRIE  SUNNY     79  72  78 CALM      30.05S
ADDISON        MOSUNNY   81  72  74 CALM      30.04S
MESQUITE       SUNNY     79  72  78 CALM      30.04R
LANCASTER      SUNNY     78  72  83 S3        30.04S
$$

TXZ091>094-102>105-117-120-121-131>134-271500-
NORTH CENTRAL TEXAS

CITY           SKY/WX    TMP DP  RH WIND       PRES   REMARKS
SHRMAN/DENISON SUNNY     76  68  76 E7        30.06S
GAINESVILLE    SUNNY     76  69  78 S3        30.07S
BOWIE          SUNNY     77  72  84 SE5       30.06S
BRIDGEPORT     SUNNY     77  72  83 SE5       30.07R
DECATUR        SUNNY     78  72  81 SE3       30.06S
DENTON         SUNNY     79  73  82 S5        30.03F
MCKINNEY       MOSUNNY   78  74  87 E5        30.04S
BONHAM         SUNNY     75  68  78 E6        30.06F
ROCKWALL       MOSUNNY   79  73  82 E3        30.05S
TERRELL        MOSUNNY   80  71  74 CALM      30.05R
WAXAHACHIE     SUNNY     78  74  88 S3        30.05S
CLEBURNE       SUNNY     79  73  83 CALM      30.06S
GRANBURY       SUNNY     80  72  76 CALM      30.05S
$$

TXZ083>090-098>101-113>116-127>130-139>142-154-155-271500-
WESTERN NORTH TEXAS

CITY           SKY/WX    TMP DP  RH WIND       PRES   REMARKS
WICHITA FALLS  MOSUNNY   75  70  84 CALM      30.05R
WF-KICKAPOO    SUNNY     76  71  84 CALM      30.08R
VERNON         SUNNY     77  67  71 S5        30.06F
ABILENE        MOSUNNY   73  68  84 SW7       30.08S
GRAHAM         MOSUNNY   77  77  99 SW3       30.05R
CISCO          SUNNY     75  70  83 SW6       30.08R
EASTLAND       SUNNY     74  70  85 S3        30.07S
RANGER         SUNNY     76  70  83 CALM      30.08R
MINERAL WELLS  SUNNY     77  72  84 CALM      30.04R
STEPHENVILLE   SUNNY     76  71  83 CALM      30.09S
COMANCHE       SUNNY     75  73  93 CALM      30.07S
BROWNWOOD      CLOUDY    72  72 100 CALM      30.07F FOG
COLEMAN        MOSUNNY   73  67  82 CALM      30.08S
$$

TXZ143>147-156>162-174-175-271500-
CENTRAL TEXAS

CITY           SKY/WX    TMP DP  RH WIND       PRES   REMARKS
WACO           SUNNY     78  73  84 CALM      30.04R
WACO-MCGREGOR  SUNNY     78  72  81 VRB5      30.05R
HILLSBORO      PTSUNNY   78  74  86 SE3       30.05R
CORSICANA      MOSUNNY   80  74  81 SE6       30.05S
MEXIA          SUNNY     78  71  80 S7        30.04S
HEARNE         MOSUNNY   79  76  92 NE3       30.05R
CAMERON        SUNNY     79  72  79 E3        30.04R
TEMPLE         MOSUNNY   78  72  81 E3        30.05R
KILLEEN        NOT AVBL
KILLEEN-SKYLRK CLOUDY    75  72  90 CALM      30.06R
HAMILTON       SUNNY     77  73  87 CALM      30.08R
LAMPASAS       CLOUDY    71  70  98 CALM      30.06R
$$

TXZ095>097-106>112-122>126-135>138-148>153-164>167-271500-
EAST TEXAS

CITY           SKY/WX    TMP DP  RH WIND       PRES   REMARKS
PARIS            N/A     76  68  76 E6        30.08R
SULPHUR SPRNGS   N/A     78  71  78 E3        30.08S
MOUNT PLEASANT SUNNY     78  67  70 CALM      30.08S
GILMER         PTSUNNY   78  71  78 CALM      30.06R
MINEOLA        PTSUNNY   77  72  83 CALM      30.06R
TYLER          SUNNY     79  73  82 CALM      30.05R
LONGVIEW       NOT AVBL
MARSHALL         N/A     76  69  77 CALM      30.08R
ATHENS         SUNNY     77  73  88 SE5       30.04S
PALESTINE      PTSUNNY   78  73  82 CALM      30.06R
JACKSONVILLE   PTSUNNY   75  73  91 E3        30.08R
HENDERSON      MOSUNNY   78  71  78 S3        30.07R
CENTER         PTSUNNY   81  76  85 CALM      30.07R
NACOGDOCHES    PTSUNNY   77  72  83 MISG      30.04R
LUFKIN         PTSUNNY   77  72  84 E3        30.05R
$$

SUPPLEMENTAL OBSERVATIONS (NWS FORT WORTH AREA)

CITY           SKY/WX    TMP DP  RH WIND       PRES   REMARKS
$$

SUPPLEMENTAL OBSERVATIONS (NWS NORMAN AREA)

CITY           SKY/WX    TMP DP  RH WIND       PRES   REMARKS
GOODLETT         N/A     76  67  73 S6        30.07S
CROWELL          N/A     77  70  79 SW7       30.08R
KNOX CITY        N/A     77  66  69 W5        30.07S
SEYMOUR          N/A     78  68  72 SW6       30.07R
$$

SUPPLEMENTAL OBSERVATIONS (NWS SAN ANGELO AREA)

CITY           SKY/WX    TMP DP  RH WIND       PRES   REMARKS
WEINERT          N/A     77  68  73 SW5       30.07S
HASKELL          N/A     75  67  76 SW6       30.08R
THROCKMORTON     N/A     76  71  83 W5        30.08S
STAMFORD         N/A     74  68  81 SW3       30.09R
CLYDE            N/A     74  69  83 SW3       30.10S
$$

SUPPLEMENTAL OBSERVATIONS (NWS SHREVEPORT AREA)

CITY           SKY/WX    TMP DP  RH WIND       PRES   REMARKS
$$

SUPPLEMENTAL OBSERVATIONS ARE A COLLECTION OF AUTOMATED INSTRUMENTS
THAT ARE MAINTAINED BY A VARIETY OF FEDERAL AND STATE AGENCIES.
CERTAIN ELEMENTS...SUCH AS HUMIDITY VALUES AND SUSTAINED WIND
SPEEDS...MAY BE APPROXIMATED.





USA.gov is the U.S. government's official web portal to all federal, state and local government web resources and services.